| time (UTC) | temp C | wind direction | speed KPH | gust KPH | rain 1hr cm | rain 24hr cm | rain mn cm | humidity % | barometer mb |
| 20260507162505 | 12 | 78 | 1.6 | 3.2 | 0.00 | 0.13 | 0.13 | 93 | 1012.6 |
| 20260507162005 | 12 | 41 | 0.0 | 1.6 | 0.00 | 0.13 | 0.13 | 92 | 1012.9 |
| 20260507161505 | 12 | 77 | 0.0 | 9.7 | 0.00 | 0.13 | 0.13 | 93 | 1012.7 |
| 20260507161005 | 12 | 78 | 1.6 | 4.8 | 0.00 | 0.13 | 0.13 | 93 | 1012.9 |
| 20260507160505 | 12 | 77 | 0.0 | 1.6 | 0.00 | 0.13 | 0.13 | 93 | 1012.9 |
| 20260507160007 | 12 | 107 | 1.6 | 3.2 | 0.00 | 0.13 | 0.13 | 91 | 1013.2 |
| 20260507155504 | 12 | 77 | 1.6 | 8.0 | 0.00 | 0.15 | 0.13 | 91 | 1013.1 |
| 20260507155005 | 12 | 83 | 3.2 | 11.3 | 0.00 | 0.15 | 0.13 | 91 | 1012.8 |
| 20260507154504 | 12 | 74 | 3.2 | 8.0 | 0.00 | 0.15 | 0.13 | 94 | 1012.3 |
| 20260507154005 | 12 | 78 | 1.6 | 1.6 | 0.00 | 0.18 | 0.13 | 94 | 1012.5 |
| 20260507153716 | 12 | 77 | 3.2 | 9.7 | 0.00 | 0.18 | 0.13 | 94 | 1012.6 |
| 20260507153006 | 12 | 74 | 1.6 | 9.7 | 0.00 | 0.18 | 0.13 | 96 | 1012.5 |
| 20260507152716 | 12 | 77 | 1.6 | 3.2 | 0.00 | 0.18 | 0.13 | 95 | 1012.7 |
| 20260507152006 | 13 | 77 | 0.0 | 3.2 | 0.00 | 0.18 | 0.13 | 94 | 1012.8 |
| 20260507151506 | 13 | 83 | 1.6 | 4.8 | 0.00 | 0.18 | 0.13 | 96 | 1012.8 |
| 20260507151005 | 12 | 77 | 3.2 | 9.7 | 0.00 | 0.18 | 0.13 | 95 | 1012.6 |
| 20260507150716 | 13 | 80 | 1.6 | 9.7 | 0.00 | 0.18 | 0.13 | 94 | 1012.6 |
| 20260507150007 | 13 | 79 | 4.8 | 9.7 | 0.00 | 0.18 | 0.13 | 96 | 1012.3 |
| 20260507145504 | 13 | 77 | 1.6 | 4.8 | 0.00 | 0.18 | 0.13 | 97 | 1012.4 |
| 20260507145006 | 13 | 74 | 1.6 | 9.7 | 0.00 | 0.20 | 0.13 | 96 | 1012.6 |
| 20260507144504 | 13 | 76 | 1.6 | 8.0 | 0.00 | 0.20 | 0.13 | 96 | 1012.5 |
| 20260507144006 | 13 | 82 | 3.2 | 8.0 | 0.00 | 0.20 | 0.13 | 97 | 1012.4 |
| 20260507143507 | 13 | 84 | 1.6 | 4.8 | 0.00 | 0.20 | 0.13 | 99 | 1012.2 |
| 20260507143217 | 13 | 79 | 0.0 | 3.2 | 0.00 | 0.20 | 0.13 | 100 | 1012.2 |
| 20260507142505 | 13 | 77 | 3.2 | 4.8 | 0.00 | 0.20 | 0.13 | 99 | 1012.3 |
| 20260507142217 | 13 | 77 | 0.0 | 3.2 | 0.00 | 0.20 | 0.13 | 100 | 1012.1 |
| 20260507141716 | 13 | 77 | 0.0 | 3.2 | 0.00 | 0.20 | 0.13 | 100 | 1012.2 |
| 20260507141007 | 13 | 77 | 1.6 | 3.2 | 0.00 | 0.20 | 0.13 | 100 | 1012.3 |
| 20260507140505 | 13 | 86 | 0.0 | 9.7 | 0.03 | 0.20 | 0.13 | 100 | 1012.3 |
| 20260507140217 | 13 | 82 | 3.2 | 9.7 | 0.03 | 0.20 | 0.13 | 100 | 1012.2 |
| 20260507135505 | 13 | 77 | 1.6 | 9.7 | 0.03 | 0.20 | 0.13 | 100 | 1012.1 |
| 20260507135005 | 13 | 75 | 1.6 | 4.8 | 0.03 | 0.20 | 0.13 | 100 | 1011.9 |
| 20260507134716 | 13 | 77 | 4.8 | 12.9 | 0.03 | 0.20 | 0.13 | 100 | 1012.0 |
| 20260507134006 | 13 | 74 | 3.2 | 12.9 | 0.03 | 0.20 | 0.13 | 100 | 1011.7 |
| 20260507133505 | 13 | 77 | 3.2 | 14.5 | 0.03 | 0.20 | 0.13 | 100 | 1011.9 |
| 20260507133007 | 13 | 74 | 6.4 | 14.5 | 0.03 | 0.20 | 0.13 | 100 | 1011.9 |
| 20260507132504 | 13 | 77 | 3.2 | 9.7 | 0.03 | 0.20 | 0.13 | 100 | 1011.5 |
| 20260507132004 | 13 | 94 | 1.6 | 4.8 | 0.03 | 0.20 | 0.13 | 100 | 1011.6 |
| 20260507131505 | 13 | 61 | 1.6 | 4.8 | 0.03 | 0.20 | 0.13 | 100 | 1011.8 |
| 20260507131006 | 13 | 76 | 1.6 | 11.3 | 0.03 | 0.20 | 0.13 | 100 | 1011.7 |
| 20260507130505 | 13 | 97 | 1.6 | 8.0 | 0.00 | 0.18 | 0.10 | 100 | 1011.5 |
| 20260507130007 | 13 | 73 | 3.2 | 8.0 | 0.00 | 0.18 | 0.10 | 100 | 1011.7 |
| 20260507125715 | 13 | 78 | 1.6 | 4.8 | 0.00 | 0.18 | 0.10 | 100 | 1011.6 |
| 20260507125007 | 13 | 75 | 1.6 | 4.8 | 0.00 | 0.18 | 0.10 | 100 | 1011.5 |
| 20260507124504 | 13 | 80 | 1.6 | 4.8 | 0.00 | 0.18 | 0.10 | 100 | 1011.3 |
| 20260507124216 | 13 | 76 | 3.2 | 11.3 | 0.00 | 0.18 | 0.10 | 100 | 1011.3 |
| 20260507123505 | 13 | 77 | 1.6 | 8.0 | 0.00 | 0.18 | 0.10 | 100 | 1011.2 |
| 20260507123005 | 13 | 82 | 1.6 | 8.0 | 0.00 | 0.18 | 0.10 | 100 | 1011.4 |
| 20260507122716 | 13 | 86 | 1.6 | 11.3 | 0.03 | 0.18 | 0.10 | 100 | 1011.3 |
| 20260507122006 | 13 | 77 | 1.6 | 8.0 | 0.05 | 0.18 | 0.10 | 100 | 1011.2 |
| 20260507121504 | 13 | 77 | 1.6 | 8.0 | 0.05 | 0.18 | 0.10 | 100 | 1011.4 |
| 20260507121216 | 13 | 77 | 1.6 | 9.7 | 0.05 | 0.18 | 0.10 | 100 | 1011.6 |
| 20260507120505 | 13 | 79 | 3.2 | 9.7 | 0.05 | 0.18 | 0.10 | 100 | 1011.5 |
| 20260507120218 | 13 | 78 | 1.6 | 8.0 | 0.08 | 0.18 | 0.10 | 100 | 1011.4 |
| 20260507115506 | 13 | 71 | 3.2 | 8.0 | 0.08 | 0.18 | 0.10 | 100 | 1011.3 |
| 20260507115216 | 13 | 77 | 3.2 | 9.7 | 0.08 | 0.18 | 0.10 | 100 | 1011.1 |
| 20260507114504 | 13 | 78 | 3.2 | 14.5 | 0.08 | 0.18 | 0.10 | 100 | 1011.2 |
| 20260507114216 | 13 | 75 | 3.2 | 11.3 | 0.08 | 0.18 | 0.10 | 100 | 1011.1 |
| 20260507113506 | 13 | 78 | 4.8 | 12.9 | 0.08 | 0.18 | 0.10 | 100 | 1011.4 |
| 20260507113218 | 13 | 74 | 3.2 | 8.0 | 0.10 | 0.18 | 0.10 | 100 | 1011.4 |
| 20260507112505 | 13 | 78 | 3.2 | 8.0 | 0.08 | 0.15 | 0.08 | 100 | 1011.5 |
| 20260507112216 | 14 | 79 | 3.2 | 8.0 | 0.05 | 0.13 | 0.05 | 100 | 1011.3 |
| 20260507111506 | 14 | 75 | 1.6 | 8.0 | 0.05 | 0.13 | 0.05 | 100 | 1011.2 |
| 20260507111006 | 14 | 78 | 1.6 | 8.0 | 0.05 | 0.13 | 0.05 | 100 | 1011.2 |
| 20260507110505 | 14 | 77 | 1.6 | 4.8 | 0.05 | 0.13 | 0.05 | 100 | 1011.1 |
| 20260507110005 | 14 | 73 | 1.6 | 12.9 | 0.03 | 0.10 | 0.03 | 100 | 1010.9 |
| 20260507105714 | 14 | 59 | 1.6 | 4.8 | 0.03 | 0.10 | 0.03 | 100 | 1010.9 |
| 20260507105215 | 14 | 77 | 3.2 | 9.7 | 0.03 | 0.10 | 0.03 | 100 | 1010.6 |
| 20260507104505 | 14 | 75 | 3.2 | 4.8 | 0.03 | 0.10 | 0.03 | 100 | 1010.6 |
| 20260507104005 | 14 | 77 | 4.8 | 9.7 | 0.03 | 0.10 | 0.03 | 100 | 1010.6 |
| 20260507103506 | 15 | 78 | 3.2 | 8.0 | 0.03 | 0.10 | 0.03 | 100 | 1010.4 |
| 20260507103217 | 15 | 81 | 3.2 | 9.7 | 0.00 | 0.08 | 0.00 | 100 | 1010.6 |
| 20260507102506 | 15 | 77 | 3.2 | 9.7 | 0.00 | 0.08 | 0.00 | 100 | 1010.7 |
| 20260507102217 | 15 | 74 | 3.2 | 8.0 | 0.00 | 0.08 | 0.00 | 100 | 1010.9 |
| 20260507101714 | 15 | 77 | 3.2 | 4.8 | 0.00 | 0.08 | 0.00 | 100 | 1010.8 |
| 20260507101217 | 15 | 76 | 1.6 | 8.0 | 0.00 | 0.08 | 0.00 | 100 | 1010.5 |
| 20260507100504 | 15 | 84 | 4.8 | 11.3 | 0.00 | 0.08 | 0.00 | 100 | 1010.4 |
| 20260507100007 | 15 | 67 | 1.6 | 4.8 | 0.00 | 0.08 | 0.00 | 100 | 1010.5 |
| 20260507095505 | 15 | 77 | 4.8 | 12.9 | 0.00 | 0.08 | 0.00 | 100 | 1010.6 |
| 20260507095005 | 15 | 77 | 3.2 | 12.9 | 0.00 | 0.08 | 0.00 | 100 | 1010.4 |
| 20260507094506 | 15 | 77 | 3.2 | 9.7 | 0.00 | 0.08 | 0.00 | 100 | 1010.2 |
| 20260507094006 | 15 | 77 | 3.2 | 14.5 | 0.00 | 0.08 | 0.00 | 100 | 1010.4 |
| 20260507093505 | 15 | 76 | 4.8 | 16.1 | 0.00 | 0.08 | 0.00 | 100 | 1010.5 |
| 20260507093217 | 15 | 71 | 1.6 | 4.8 | 0.00 | 0.08 | 0.00 | 100 | 1010.3 |
| 20260507092506 | 16 | 73 | 1.6 | 20.9 | 0.00 | 0.08 | 0.00 | 100 | 1010.2 |
| 20260507092005 | 16 | 75 | 4.8 | 22.5 | 0.00 | 0.08 | 0.00 | 100 | 1010.3 |
| 20260507091505 | 16 | 77 | 9.7 | 22.5 | 0.00 | 0.08 | 0.00 | 100 | 1010.0 |
| 20260507091217 | 16 | 75 | 3.2 | 11.3 | 0.00 | 0.08 | 0.00 | 100 | 1009.7 |
| 20260507090718 | 17 | 77 | 8.0 | 19.3 | 0.00 | 0.08 | 0.00 | 99 | 1009.6 |
| 20260507090217 | 17 | 77 | 4.8 | 9.7 | 0.00 | 0.08 | 0.00 | 99 | 1009.4 |
| 20260507085505 | 18 | 76 | 3.2 | 12.9 | 0.00 | 0.08 | 0.00 | 100 | 1009.3 |
| 20260507085006 | 18 | 77 | 1.6 | 3.2 | 0.00 | 0.08 | 0.00 | 100 | 1009.0 |
| 20260507084505 | 18 | 260 | 1.6 | 1.6 | 0.00 | 0.08 | 0.00 | 100 | 1009.0 |
| 20260507084217 | 18 | 125 | 0.0 | 0.0 | 0.00 | 0.08 | 0.00 | 100 | 1009.0 |
| 20260507083506 | 18 | 288 | 1.6 | 3.2 | 0.00 | 0.08 | 0.00 | 100 | 1009.2 |
| 20260507083217 | 18 | 53 | 1.6 | 4.8 | 0.00 | 0.08 | 0.00 | 100 | 1009.1 |
| 20260507082716 | 18 | 77 | 1.6 | 3.2 | 0.00 | 0.08 | 0.00 | 100 | 1008.6 |
| 20260507082005 | 18 | 83 | 1.6 | 3.2 | 0.00 | 0.08 | 0.00 | 100 | 1008.8 |
| 20260507081504 | 18 | 207 | 1.6 | 3.2 | 0.00 | 0.08 | 0.00 | 100 | 1008.7 |
| 20260507081006 | 18 | 184 | 1.6 | 1.6 | 0.00 | 0.08 | 0.00 | 99 | 1009.0 |
| 20260507080715 | 18 | 74 | 1.6 | 1.6 | 0.00 | 0.08 | 0.00 | 99 | 1009.0 |
| 20260507080005 | 19 | 77 | 1.6 | 3.2 | 0.00 | 0.08 | 0.00 | 99 | 1009.0 |
| 20260507075715 | 19 | 312 | 3.2 | 8.0 | 0.00 | 0.08 | 0.00 | 99 | 1009.0 |
| 20260507075006 | 19 | 264 | 3.2 | 3.2 | 0.00 | 0.08 | 0.00 | 99 | 1008.9 |
| 20260507074505 | 19 | 191 | 1.6 | 8.0 | 0.00 | 0.08 | 0.00 | 98 | 1009.2 |
| 20260507074006 | 19 | 279 | 1.6 | 11.3 | 0.00 | 0.08 | 0.00 | 98 | 1009.3 |
| 20260507073505 | 19 | 239 | 3.2 | 9.7 | 0.00 | 0.08 | 0.00 | 97 | 1009.4 |
| 20260507073006 | 19 | 258 | 6.4 | 19.3 | 0.00 | 0.08 | 0.00 | 96 | 1009.4 |
| 20260507072505 | 19 | 248 | 8.0 | 16.1 | 0.00 | 0.08 | 0.00 | 97 | 1009.4 |
| 20260507072005 | 19 | 267 | 8.0 | 20.9 | 0.00 | 0.08 | 0.00 | 96 | 1009.2 |
| 20260507071715 | 19 | 227 | 4.8 | 12.9 | 0.00 | 0.08 | 0.00 | 97 | 1009.3 |
| 20260507071006 | 19 | 299 | 4.8 | 19.3 | 0.00 | 0.08 | 0.00 | 97 | 1009.3 |
| 20260507070506 | 19 | 183 | 4.8 | 14.5 | 0.00 | 0.08 | 0.00 | 97 | 1009.1 |
| 20260507070010 | 19 | 259 | 6.4 | 16.1 | 0.00 | 0.08 | 0.00 | 97 | 1008.9 |
| 20260507065715 | 19 | 232 | 3.2 | 14.5 | 0.00 | 0.08 | 0.00 | 98 | 1008.6 |
| 20260507065005 | 20 | 242 | 6.4 | 16.1 | 0.00 | 0.08 | 0.00 | 98 | 1008.8 |
| 20260507064505 | 20 | 205 | 6.4 | 16.1 | 0.00 | 0.08 | 0.00 | 96 | 1008.8 |
| 20260507064005 | 20 | 253 | 6.4 | 16.1 | 0.00 | 0.08 | 0.00 | 96 | 1008.7 |
| 20260507063505 | 20 | 230 | 4.8 | 12.9 | 0.00 | 0.08 | 0.00 | 96 | 1008.5 |
| 20260507063006 | 20 | 230 | 4.8 | 16.1 | 0.00 | 0.08 | 0.00 | 95 | 1008.5 |
| 20260507062504 | 20 | 262 | 1.6 | 12.9 | 0.00 | 0.08 | 0.00 | 96 | 1008.5 |
| 20260507062008 | 20 | 318 | 3.2 | 16.1 | 0.00 | 0.08 | 0.00 | 95 | 1008.8 |
| 20260507061506 | 20 | 243 | 8.0 | 14.5 | 0.00 | 0.08 | 0.00 | 96 | 1008.7 |
| 20260507061006 | 20 | 25 | 4.8 | 12.9 | 0.00 | 0.08 | 0.00 | 97 | 1008.8 |
| 20260507060717 | 20 | 278 | 8.0 | 19.3 | 0.00 | 0.08 | 0.00 | 96 | 1009.3 |
| 20260507060006 | 20 | 246 | 4.8 | 14.5 | 0.00 | 0.08 | 0.00 | 97 | 1009.4 |
| 20260507055505 | 20 | 232 | 4.8 | 14.5 | 0.00 | 0.08 | 0.00 | 96 | 1009.4 |
| 20260507055005 | 20 | 243 | 8.0 | 14.5 | 0.00 | 0.08 | 0.00 | 95 | 1009.7 |
| 20260507054505 | 20 | 253 | 8.0 | 12.9 | 0.00 | 0.08 | 0.00 | 94 | 1010.0 |
| 20260507054005 | 20 | 277 | 6.4 | 20.9 | 0.00 | 0.08 | 0.00 | 92 | 1010.1 |
| 20260507053505 | 20 | 254 | 4.8 | 19.3 | 0.00 | 0.08 | 0.00 | 92 | 1010.1 |
| 20260507053005 | 20 | 225 | 8.0 | 14.5 | 0.00 | 0.08 | 0.00 | 92 | 1010.1 |
| 20260507052506 | 20 | 255 | 6.4 | 14.5 | 0.00 | 0.08 | 0.00 | 90 | 1010.3 |
| 20260507052216 | 20 | 189 | 4.8 | 14.5 | 0.00 | 0.08 | 0.00 | 92 | 1010.6 |
| 20260507051716 | 20 | 254 | 6.4 | 16.1 | 0.00 | 0.08 | 0.00 | 90 | 1010.8 |
| 20260507051006 | 20 | 218 | 8.0 | 14.5 | 0.00 | 0.08 | 0.00 | 88 | 1010.9 |
| 20260507050716 | 21 | 245 | 8.0 | 14.5 | 0.00 | 0.08 | 0.00 | 87 | 1011.0 |
| 20260507050006 | 21 | 243 | 4.8 | 12.9 | 0.00 | 0.08 | 0.00 | 86 | 1010.9 |
| 20260507045714 | 21 | 230 | 4.8 | 19.3 | 0.00 | 0.08 | 0.00 | 86 | 1010.9 |
| 20260507045215 | 21 | 250 | 9.7 | 19.3 | 0.00 | 0.08 | 0.00 | 86 | 1011.0 |
| 20260507044505 | 21 | 238 | 3.2 | 11.3 | 0.00 | 0.08 | 0.00 | 86 | 1011.0 |
| 20260507044005 | 21 | 225 | 4.8 | 16.1 | 0.00 | 0.08 | 0.00 | 86 | 1011.0 |
| 20260507043505 | 21 | 62 | 3.2 | 12.9 | 0.00 | 0.08 | 0.00 | 86 | 1011.1 |
| 20260507043005 | 20 | 267 | 4.8 | 14.5 | 0.00 | 0.08 | 0.00 | 86 | 1011.1 |
| 20260507042716 | 20 | 282 | 3.2 | 19.3 | 0.00 | 0.08 | 0.00 | 86 | 1010.9 |
| 20260507042007 | 20 | 284 | 8.0 | 19.3 | 0.00 | 0.08 | 0.00 | 87 | 1010.8 |
| 20260507041716 | 20 | 248 | 4.8 | 14.5 | 0.00 | 0.08 | 0.00 | 87 | 1010.8 |
| 20260507041217 | 20 | 240 | 4.8 | 12.9 | 0.00 | 0.08 | 0.00 | 88 | 1010.7 |
| 20260507040716 | 20 | 236 | 6.4 | 14.5 | 0.00 | 0.08 | 0.00 | 88 | 1010.6 |
| 20260507040013 | 20 | 234 | 3.2 | 12.9 | 0.00 | 0.08 | 0.00 | 89 | 1010.7 |
| 20260507035505 | 20 | 243 | 3.2 | 19.3 | 0.00 | 0.08 | 0.08 | 90 | 1010.8 |
| 20260507035215 | 20 | 231 | 4.8 | 12.9 | 0.00 | 0.08 | 0.08 | 90 | 1010.8 |
| 20260507034505 | 20 | 260 | 8.0 | 11.3 | 0.00 | 0.08 | 0.08 | 90 | 1010.7 |
| 20260507034005 | 20 | 220 | 4.8 | 14.5 | 0.00 | 0.08 | 0.08 | 90 | 1010.7 |
| 20260507033506 | 20 | 237 | 4.8 | 11.3 | 0.00 | 0.08 | 0.08 | 90 | 1010.7 |
| 20260507033006 | 20 | 246 | 3.2 | 9.7 | 0.00 | 0.08 | 0.08 | 90 | 1010.7 |
| 20260507032506 | 20 | 223 | 3.2 | 8.0 | 0.00 | 0.08 | 0.08 | 90 | 1010.6 |
| 20260507032005 | 20 | 194 | 3.2 | 9.7 | 0.00 | 0.08 | 0.08 | 90 | 1010.7 |
| 20260507031505 | 20 | 256 | 4.8 | 11.3 | 0.00 | 0.08 | 0.08 | 89 | 1010.6 |
| 20260507031007 | 20 | 250 | 4.8 | 12.9 | 0.00 | 0.08 | 0.08 | 89 | 1010.4 |
| 20260507030505 | 20 | 254 | 8.0 | 11.3 | 0.00 | 0.08 | 0.08 | 89 | 1010.5 |
| 20260507030006 | 20 | 304 | 6.4 | 11.3 | 0.00 | 0.08 | 0.08 | 89 | 1010.7 |
| 20260507025504 | 20 | 248 | 4.8 | 12.9 | 0.00 | 0.08 | 0.08 | 90 | 1010.7 |
| 20260507025005 | 20 | 260 | 3.2 | 14.5 | 0.00 | 0.08 | 0.08 | 89 | 1010.7 |
| 20260507024715 | 20 | 271 | 4.8 | 12.9 | 0.00 | 0.08 | 0.08 | 88 | 1010.8 |
| 20260507024007 | 20 | 202 | 4.8 | 12.9 | 0.00 | 0.08 | 0.08 | 88 | 1010.8 |
| 20260507023506 | 20 | 230 | 4.8 | 14.5 | 0.00 | 0.08 | 0.08 | 89 | 1011.0 |
| 20260507023216 | 20 | 222 | 4.8 | 14.5 | 0.00 | 0.08 | 0.08 | 89 | 1011.0 |
| 20260507022505 | 20 | 228 | 4.8 | 11.3 | 0.00 | 0.08 | 0.08 | 89 | 1011.0 |
| 20260507022216 | 20 | 242 | 4.8 | 12.9 | 0.00 | 0.08 | 0.08 | 89 | 1011.0 |
| 20260507021505 | 20 | 225 | 4.8 | 12.9 | 0.00 | 0.08 | 0.08 | 90 | 1010.9 |
| 20260507021005 | 20 | 239 | 8.0 | 12.9 | 0.00 | 0.08 | 0.08 | 90 | 1010.9 |
| 20260507020505 | 20 | 237 | 6.4 | 14.5 | 0.00 | 0.08 | 0.08 | 91 | 1010.9 |
| 20260507020007 | 19 | 252 | 3.2 | 12.9 | 0.00 | 0.08 | 0.08 | 91 | 1010.9 |
| 20260507015715 | 19 | 235 | 3.2 | 9.7 | 0.00 | 0.08 | 0.08 | 91 | 1010.8 |
| 20260507015005 | 19 | 233 | 3.2 | 8.0 | 0.00 | 0.08 | 0.08 | 91 | 1010.9 |
| 20260507014504 | 19 | 232 | 1.6 | 9.7 | 0.00 | 0.08 | 0.08 | 91 | 1010.9 |
| 20260507014007 | 19 | 247 | 3.2 | 9.7 | 0.00 | 0.08 | 0.08 | 91 | 1011.0 |
| 20260507013505 | 19 | 237 | 3.2 | 9.7 | 0.00 | 0.08 | 0.08 | 90 | 1011.0 |
| 20260507013007 | 19 | 231 | 3.2 | 8.0 | 0.00 | 0.08 | 0.08 | 90 | 1011.1 |
| 20260507012505 | 19 | 242 | 3.2 | 9.7 | 0.00 | 0.08 | 0.08 | 90 | 1011.1 |
| 20260507012007 | 20 | 235 | 3.2 | 8.0 | 0.00 | 0.08 | 0.08 | 89 | 1011.1 |
| 20260507011715 | 20 | 230 | 3.2 | 4.8 | 0.00 | 0.08 | 0.08 | 89 | 1011.0 |
| 20260507011007 | 20 | 242 | 3.2 | 4.8 | 0.00 | 0.08 | 0.08 | 88 | 1011.0 |
| 20260507010505 | 20 | 233 | 1.6 | 4.8 | 0.00 | 0.08 | 0.08 | 87 | 1011.1 |
| 20260507010005 | 20 | 241 | 3.2 | 9.7 | 0.00 | 0.08 | 0.08 | 86 | 1011.2 |
| 20260507005506 | 20 | 242 | 1.6 | 8.0 | 0.00 | 0.08 | 0.08 | 86 | 1011.2 |
| 20260507005005 | 20 | 225 | 4.8 | 11.3 | 0.00 | 0.08 | 0.08 | 85 | 1011.4 |
| 20260507004505 | 20 | 252 | 3.2 | 8.0 | 0.00 | 0.08 | 0.08 | 84 | 1011.3 |
| 20260507004006 | 20 | 228 | 3.2 | 8.0 | 0.00 | 0.08 | 0.08 | 84 | 1011.3 |
| 20260507003508 | 21 | 220 | 4.8 | 9.7 | 0.00 | 0.08 | 0.08 | 83 | 1011.3 |
| 20260507003006 | 21 | 244 | 3.2 | 8.0 | 0.00 | 0.08 | 0.08 | 83 | 1011.3 |
| 20260507002507 | 21 | 224 | 3.2 | 4.8 | 0.00 | 0.08 | 0.08 | 82 | 1011.3 |
| 20260507002006 | 21 | 225 | 3.2 | 8.0 | 0.00 | 0.08 | 0.08 | 81 | 1011.3 |
| 20260507001505 | 21 | 247 | 3.2 | 12.9 | 0.00 | 0.08 | 0.08 | 81 | 1011.2 |
| 20260507001005 | 21 | 254 | 4.8 | 9.7 | 0.00 | 0.08 | 0.08 | 80 | 1011.1 |
| 20260507000715 | 21 | 230 | 3.2 | 9.7 | 0.00 | 0.08 | 0.08 | 80 | 1011.0 |
| 20260507000006 | 21 | 244 | 6.4 | 12.9 | 0.00 | 0.08 | 0.08 | 80 | 1011.0 |
| 20260506235505 | 21 | 255 | 9.7 | 16.1 | 0.00 | 0.08 | 0.08 | 79 | 1010.8 |
| 20260506235216 | 21 | 233 | 4.8 | 12.9 | 0.00 | 0.08 | 0.08 | 79 | 1011.0 |
| 20260506234505 | 22 | 261 | 1.6 | 9.7 | 0.00 | 0.08 | 0.08 | 79 | 1010.9 |
| 20260506234216 | 22 | 241 | 4.8 | 11.3 | 0.00 | 0.08 | 0.08 | 79 | 1011.0 |
| 20260506233505 | 22 | 231 | 4.8 | 9.7 | 0.00 | 0.08 | 0.08 | 78 | 1011.0 |
| 20260506233006 | 22 | 265 | 3.2 | 12.9 | 0.00 | 0.08 | 0.08 | 77 | 1010.9 |
| 20260506232504 | 22 | 239 | 4.8 | 11.3 | 0.00 | 0.08 | 0.08 | 78 | 1010.9 |
| 20260506232005 | 22 | 265 | 3.2 | 8.0 | 0.00 | 0.08 | 0.08 | 78 | 1011.0 |
| 20260506231506 | 22 | 248 | 3.2 | 9.7 | 0.00 | 0.08 | 0.08 | 77 | 1010.9 |
| 20260506231007 | 22 | 250 | 1.6 | 12.9 | 0.00 | 0.08 | 0.08 | 77 | 1010.8 |
| 20260506230505 | 22 | 268 | 3.2 | 8.0 | 0.00 | 0.08 | 0.08 | 76 | 1010.8 |
| 20260506230006 | 22 | 264 | 3.2 | 8.0 | 0.00 | 0.08 | 0.08 | 77 | 1010.8 |
| 20260506225505 | 22 | 151 | 1.6 | 11.3 | 0.00 | 0.08 | 0.08 | 75 | 1010.7 |
| 20260506225005 | 22 | 348 | 3.2 | 8.0 | 0.00 | 0.08 | 0.08 | 76 | 1010.8 |
| 20260506224505 | 22 | 226 | 4.8 | 9.7 | 0.00 | 0.08 | 0.08 | 76 | 1010.8 |
| 20260506224215 | 22 | 215 | 6.4 | 11.3 | 0.00 | 0.08 | 0.08 | 76 | 1010.7 |
| 20260506223504 | 22 | 107 | 4.8 | 11.3 | 0.00 | 0.08 | 0.08 | 76 | 1010.8 |
| 20260506223007 | 22 | 251 | 1.6 | 11.3 | 0.00 | 0.08 | 0.08 | 75 | 1010.7 |
| 20260506222504 | 22 | 241 | 3.2 | 9.7 | 0.00 | 0.08 | 0.08 | 76 | 1010.7 |
| 20260506222005 | 22 | 194 | 3.2 | 11.3 | 0.00 | 0.08 | 0.08 | 76 | 1010.8 |
| 20260506221505 | 22 | 242 | 6.4 | 11.3 | 0.00 | 0.08 | 0.08 | 75 | 1010.9 |
| 20260506221007 | 23 | 262 | 3.2 | 11.3 | 0.00 | 0.08 | 0.08 | 75 | 1010.8 |
| 20260506220505 | 23 | 236 | 8.0 | 14.5 | 0.00 | 0.08 | 0.08 | 74 | 1010.9 |
| 20260506220215 | 23 | 273 | 4.8 | 12.9 | 0.00 | 0.08 | 0.08 | 74 | 1011.1 |
| 20260506215506 | 23 | 289 | 3.2 | 11.3 | 0.00 | 0.08 | 0.08 | 73 | 1011.1 |
| 20260506215006 | 23 | 205 | 1.6 | 24.1 | 0.00 | 0.08 | 0.08 | 74 | 1011.1 |
| 20260506214505 | 23 | 319 | 6.4 | 19.3 | 0.00 | 0.08 | 0.08 | 74 | 1011.0 |
| 20260506214007 | 22 | 231 | 4.8 | 19.3 | 0.00 | 0.08 | 0.08 | 74 | 1010.9 |
| 20260506213506 | 22 | 276 | 4.8 | 12.9 | 0.00 | 0.08 | 0.08 | 75 | 1010.9 |
| 20260506213007 | 22 | 212 | 3.2 | 14.5 | 0.00 | 0.08 | 0.08 | 74 | 1010.8 |
| 20260506212716 | 22 | 281 | 4.8 | 19.3 | 0.00 | 0.08 | 0.08 | 75 | 1010.8 |
| 20260506212007 | 22 | 231 | 4.8 | 14.5 | 0.00 | 0.08 | 0.08 | 74 | 1010.8 |
| 20260506211505 | 22 | 243 | 4.8 | 14.5 | 0.00 | 0.08 | 0.08 | 74 | 1010.9 |
| 20260506211006 | 22 | 254 | 8.0 | 16.1 | 0.00 | 0.08 | 0.08 | 74 | 1011.1 |
| 20260506210505 | 22 | 262 | 8.0 | 20.9 | 0.00 | 0.08 | 0.08 | 74 | 1010.9 |
| 20260506210215 | 22 | 299 | 4.8 | 11.3 | 0.00 | 0.08 | 0.08 | 75 | 1011.0 |
| 20260506205714 | 22 | 224 | 8.0 | 16.1 | 0.00 | 0.08 | 0.08 | 74 | 1010.8 |
| 20260506205215 | 22 | 277 | 8.0 | 22.5 | 0.00 | 0.08 | 0.08 | 74 | 1010.9 |
| 20260506204505 | 22 | 221 | 4.8 | 14.5 | 0.00 | 0.08 | 0.08 | 74 | 1010.9 |
| 20260506204005 | 22 | 234 | 4.8 | 9.7 | 0.00 | 0.08 | 0.08 | 75 | 1010.8 |
| 20260506203505 | 22 | 87 | 1.6 | 11.3 | 0.00 | 0.08 | 0.08 | 75 | 1010.7 |
| 20260506203217 | 22 | 249 | 4.8 | 12.9 | 0.00 | 0.08 | 0.08 | 75 | 1010.6 |
| 20260506202504 | 22 | 35 | 4.8 | 11.3 | 0.00 | 0.08 | 0.08 | 76 | 1010.6 |
| 20260506202217 | 22 | 298 | 6.4 | 14.5 | 0.00 | 0.08 | 0.08 | 74 | 1010.1 |
| 20260506201506 | 22 | 272 | 6.4 | 16.1 | 0.00 | 0.08 | 0.08 | 76 | 1010.0 |
| 20260506201005 | 22 | 240 | 8.0 | 25.7 | 0.00 | 0.08 | 0.08 | 73 | 1010.0 |
| 20260506200505 | 22 | 245 | 8.0 | 22.5 | 0.00 | 0.08 | 0.08 | 76 | 1010.2 |
| 20260506200219 | 22 | 238 | 3.2 | 19.3 | 0.00 | 0.08 | 0.08 | 74 | 1010.4 |
| 20260506195505 | 22 | 244 | 14.5 | 24.1 | 0.00 | 0.08 | 0.08 | 75 | 1010.5 |
| 20260506195005 | 22 | 257 | 8.0 | 29.0 | 0.00 | 0.08 | 0.08 | 76 | 1010.6 |
| 20260506194505 | 22 | 269 | 8.0 | 19.3 | 0.00 | 0.08 | 0.08 | 77 | 1010.7 |
| 20260506194006 | 21 | 232 | 8.0 | 29.0 | 0.00 | 0.08 | 0.08 | 77 | 1010.7 |
| 20260506193505 | 21 | 200 | 8.0 | 20.9 | 0.00 | 0.08 | 0.08 | 79 | 1010.6 |
| 20260506193006 | 21 | 256 | 8.0 | 19.3 | 0.00 | 0.08 | 0.08 | 79 | 1010.8 |
| 20260506192504 | 21 | 243 | 9.7 | 19.3 | 0.00 | 0.08 | 0.08 | 80 | 1011.0 |
| 20260506192007 | 21 | 246 | 8.0 | 22.5 | 0.00 | 0.08 | 0.08 | 81 | 1011.1 |
| 20260506191506 | 21 | 232 | 11.3 | 20.9 | 0.00 | 0.08 | 0.08 | 80 | 1011.3 |
| 20260506191005 | 20 | 215 | 8.0 | 16.1 | 0.00 | 0.08 | 0.08 | 83 | 1011.3 |
| 20260506190505 | 20 | 258 | 8.0 | 19.3 | 0.00 | 0.08 | 0.08 | 83 | 1011.7 |
| 20260506190006 | 20 | 237 | 8.0 | 16.1 | 0.00 | 0.08 | 0.08 | 84 | 1011.7 |
| 20260506185506 | 20 | 234 | 6.4 | 14.5 | 0.00 | 0.08 | 0.08 | 84 | 1011.8 |
| 20260506185005 | 20 | 275 | 6.4 | 14.5 | 0.00 | 0.08 | 0.08 | 85 | 1011.8 |
| 20260506184505 | 20 | 283 | 3.2 | 14.5 | 0.00 | 0.08 | 0.08 | 87 | 1011.9 |
| 20260506184006 | 20 | 233 | 8.0 | 16.1 | 0.00 | 0.08 | 0.08 | 86 | 1012.0 |
| 20260506183715 | 20 | 177 | 4.8 | 12.9 | 0.00 | 0.08 | 0.08 | 88 | 1012.1 |
| 20260506183216 | 20 | 250 | 6.4 | 14.5 | 0.00 | 0.08 | 0.08 | 86 | 1012.3 |
| 20260506182505 | 20 | 256 | 6.4 | 14.5 | 0.00 | 0.08 | 0.08 | 86 | 1012.4 |
| 20260506182216 | 20 | 219 | 3.2 | 16.1 | 0.00 | 0.08 | 0.08 | 83 | 1012.6 |
| 20260506181717 | 21 | 213 | 3.2 | 24.1 | 0.00 | 0.08 | 0.08 | 81 | 1012.6 |
| 20260506181005 | 21 | 231 | 8.0 | 25.7 | 0.00 | 0.08 | 0.08 | 80 | 1012.6 |
| 20260506180505 | 21 | 227 | 9.7 | 24.1 | 0.00 | 0.08 | 0.08 | 81 | 1012.6 |
| 20260506180006 | 21 | 221 | 4.8 | 24.1 | 0.00 | 0.08 | 0.08 | 79 | 1012.7 |
| 20260506175505 | 21 | 232 | 3.2 | 16.1 | 0.00 | 0.08 | 0.08 | 80 | 1012.7 |
| 20260506175005 | 21 | 303 | 4.8 | 22.5 | 0.00 | 0.08 | 0.08 | 80 | 1012.6 |
| 20260506174506 | 20 | 233 | 12.9 | 24.1 | 0.00 | 0.08 | 0.08 | 81 | 1012.5 |
| 20260506174216 | 20 | 222 | 11.3 | 22.5 | 0.00 | 0.08 | 0.08 | 80 | 1012.5 |
| 20260506173504 | 20 | 221 | 4.8 | 19.3 | 0.00 | 0.08 | 0.08 | 82 | 1012.4 |
| 20260506173008 | 20 | 244 | 8.0 | 24.1 | 0.00 | 0.08 | 0.08 | 83 | 1012.5 |
| 20260506172504 | 20 | 244 | 8.0 | 24.1 | 0.00 | 0.08 | 0.08 | 83 | 1012.5 |
| 20260506172005 | 20 | 221 | 8.0 | 20.9 | 0.00 | 0.08 | 0.08 | 83 | 1012.5 |
| 20260506171505 | 20 | 241 | 6.4 | 16.1 | 0.00 | 0.08 | 0.08 | 85 | 1012.5 |
| 20260506171007 | 20 | 225 | 9.7 | 22.5 | 0.00 | 0.08 | 0.08 | 84 | 1012.3 |
| 20260506170505 | 20 | 270 | 4.8 | 14.5 | 0.00 | 0.08 | 0.08 | 87 | 1012.4 |
| 20260506170006 | 19 | 221 | 8.0 | 14.5 | 0.00 | 0.08 | 0.08 | 86 | 1012.6 |
| 20260506165505 | 19 | 172 | 1.6 | 14.5 | 0.00 | 0.08 | 0.08 | 87 | 1012.7 |
| 20260506165005 | 18 | 248 | 4.8 | 16.1 | 0.03 | 0.08 | 0.08 | 88 | 1012.9 |
| 20260506164505 | 18 | 233 | 4.8 | 19.3 | 0.03 | 0.08 | 0.08 | 87 | 1013.1 |
| 20260506164217 | 18 | 261 | 6.4 | 25.7 | 0.03 | 0.08 | 0.08 | 89 | 1013.0 |
| 20260506163505 | 18 | 243 | 8.0 | 16.1 | 0.05 | 0.08 | 0.08 | 90 | 1012.8 |
| 20260506163006 | 18 | 211 | 3.2 | 9.7 | 0.05 | 0.08 | 0.08 | 92 | 1012.7 |